Home   Weather   Fortaleza   Past weeks
Flag for Brazil

Past Weather in Fortaleza, Ceará, Brazil — Yesterday and Last 2 Weeks

Now
79 °F

Passing clouds.


Feels Like: 82 °F
Forecast: 88 / 80 °F
Wind: 17 mph from East

Location: Fortaleza Aeropor-To

Current Time: Sep 15, 2019 at 4:52:03 am

Latest Report: Sep 15, 2019 at 4:00 am


Visibility: N/A

Pressure: 29.89 "Hg

Humidity: 79%

Dew Point: 72 °F

Location of FortalezaLocation

Past Weather in Fortaleza — Graph

°F

Fortaleza Temperature Yesterday

Maximum temperature yesterday: 86 °F (at 11:00 am)
Minimum temperature yesterday: 79 °F (at 12:00 am)
Average temperature yesterday: 82 °F

High & Low Weather Summary for the Past Weeks

 TemperatureHumidityPressure
High90 °F (Sep 7, 11:00 am)89% (Sep 2, 6:30 am)30.07 "Hg (Sep 2, 6:30 am)
Low75 °F (Aug 31, 6:00 am)41% (Sep 7, 11:00 am)29.86 "Hg (Sep 1, 3:00 pm)
Average82 °F68%29.95 "Hg
* Reported Aug 31 3:00 am — Sep 15 3:00 am, Fortaleza. Weather by CustomWeather, © 2019

Note: Actual official high and low records may vary slightly from our data, if they occured in-between our weather recording intervals... More about our weather records

Advertising

Fortaleza Weather History for the Previous 24 Hours

Scroll right to see more
 ConditionsComfort  
Time TempWeatherWind HumidityBarometerVisibility
3:00 am
Sun, Sep 15
81 °FPassing clouds.20 mph74%29.89 "HgN/A
2:00 am79 °FPassing clouds.18 mph79%29.89 "HgN/A
1:00 am79 °FPassing clouds.16 mph79%29.89 "HgN/A
12:00 am81 °FPassing clouds.18 mph74%29.92 "HgN/A
11:00 pm
Sat, Sep 14
81 °FPassing clouds.16 mph74%29.95 "HgN/A
10:00 pm79 °FPassing clouds.14 mph79%29.95 "HgN/A
9:00 pm81 °FPassing clouds.12 mph74%29.92 "HgN/A
8:00 pm79 °FClear.10 mph79%29.92 "Hg10 mi
7:00 pm81 °FClear.13 mph74%29.89 "Hg10 mi
6:00 pm81 °FClear.12 mph74%29.89 "Hg10 mi
5:00 pm82 °FSunny.16 mph66%29.86 "Hg10 mi
4:00 pm84 °FSunny.15 mph58%29.86 "Hg10 mi
3:00 pm86 °FSunny.17 mph55%29.86 "Hg10 mi
2:00 pm86 °FPassing clouds.22 mph55%29.89 "HgN/A
1:00 pm86 °FPassing clouds.9 mph59%29.92 "HgN/A
12:00 pm86 °FScattered clouds.22 mph55%29.95 "HgN/A
11:00 am86 °FScattered clouds.22 mph55%29.95 "HgN/A
10:00 am84 °FScattered clouds.21 mph62%29.98 "HgN/A
9:00 am84 °FPartly sunny.21 mph58%29.98 "HgN/A
8:00 am82 °FPartly sunny.22 mph66%29.95 "HgN/A
7:00 am81 °FScattered clouds.14 mph70%29.95 "HgN/A
6:00 am79 °FPassing clouds.16 mph74%29.92 "HgN/A
5:00 am79 °FPassing clouds.17 mph74%29.92 "HgN/A
4:00 am79 °FPassing clouds.15 mph74%29.92 "HgN/A
Weather by CustomWeather, © 2019

See weather overview